Find Kosmos-2146

NORAD ID: 21302 Int'l Des: 1991-033 Owner: UNKSR Country: SU operational
LEOCIRCULARPOLAR

Live-Position

3D-Globus wird geladen...

Über Kosmos-2146

Beschreibung wird geladen...

Nächste Überflüge

Passes for default location (London). Set your location on the main map for personalized predictions.

Höhenverlauf

Loading altitude history...

Zweizeiliger Elementsatz

1 21302U 91033D 26131.89203132 .00000038 00000-0 14584-3 0 9991
2 21302 82.5741 317.6508 0016956 110.9449 249.3460 12.64552862614732
Epoch: 11. Mai 2026 • Age: 7 hours

Aktueller Status

Höhe 1429.9 km
Geschwindigkeit 7.14 km/s
Subsatellitenpunkt -49.60°S, 148.46°W
Startdatum 16. Mai 1991
Alter 34.9 years
Typ other

Technische Details

Klassifizierung Payload
Masse 225.00 kg
Trockenmasse 225.00 kg
Gesamtmasse 225.00 kg
Länge 1.60 m
Durchmesser 0.80 m
Spannweite 7.00 m
Form Cyl + Ant
Hersteller NPOPM
Bus-Typ Strela-3
Phasenstatus In Orbit
Besitzer/Staat UNKSR/SU

Most Searched